Weather History for Newport, RI

Change the Weather History Date:

Friday, November 29, 2013

  Actual Average Record
Temperature  
Mean Temperature 30 °F -  
Max Temperature 35 °F 51 °F 62 °F (1958)
Min Temperature 24 °F 36 °F 24 °F (2013)
Degree Days  
Heating Degree Days 36    
Moisture  
Dew Point 11 °F    
Average Humidity 47    
Maximum Humidity 53    
Minimum Humidity 37    
Precipitation  
Precipitation 0.00 in - - ()
Sea Level Pressure  
Sea Level Pressure 30.57 in    
Wind  
Wind Speed 8 mph (NNW)    
Max Wind Speed 10 mph    
Max Gust Speed -    
Visibility 10 miles    
Events      
Averages and records for this station are not official NWS values.
T = Trace of Precipitation, MM = Missing Value Source: NWS Daily Summary

Daily Weather History Graph

Daily Weather History Graph

Search for Another Location

Airport:

Trip Planner

Search our weather history database for the weather conditions in past years. The results will help you decide how hot, cold, wet, or windy it might be!

Date:

Astronomy

Nov. 29, 2013 Rise Set
Actual Time 6:50 AM EST 4:16 PM EST
Civil Twilight 6:19 AM EST 4:47 PM EST
Nautical Twilight 5:45 AM EST 5:21 PM EST
Astronomical Twilight 5:11 AM EST 5:55 PM EST
Moon 2:50 AM EST (11/29) 2:01 PM EST (11/29)
Length of Visible Light 10h 27m
Length of Day
9h 26m
Waning Crescent, 14% of the Moon is Illuminated
Nov 29
Waning Crescent
Dec 2
New
Dec 9
First Quarter
Dec 17
Full
Dec 25
Last Quarter

Hourly Weather History & Observations

Time (EST) Temp. Windchill Dew Point Humidity Pressure Visibility Wind Dir Wind Speed Gust Speed Precip Events Conditions
12:53 AM 27.0 °F 17.3 °F 10.9 °F 51% 30.46 in 10.0 mi NW 10.4 mph - N/A   Overcast
1:53 AM 28.0 °F 19.3 °F 10.9 °F 49% 30.47 in 10.0 mi NW 9.2 mph - N/A   Overcast
2:53 AM 28.0 °F 21.7 °F 12.0 °F 51% 30.48 in 10.0 mi NW 5.8 mph - N/A   Overcast
3:53 AM 28.0 °F 20.8 °F 10.9 °F 49% 30.48 in 10.0 mi NW 6.9 mph - N/A   Overcast
4:53 AM 28.0 °F 20.0 °F 12.0 °F 51% 30.48 in 10.0 mi WNW 8.1 mph - N/A   Overcast
5:53 AM 28.0 °F 20.8 °F 12.0 °F 51% 30.50 in 10.0 mi NW 6.9 mph - N/A   Overcast
6:53 AM 28.0 °F - 12.0 °F 51% 30.52 in 10.0 mi North - - N/A   Overcast
7:53 AM 28.0 °F - 12.9 °F 53% 30.54 in 10.0 mi North - - N/A   Overcast
8:53 AM 30.9 °F - 15.1 °F 52% 30.56 in 10.0 mi North - - N/A   Partly Cloudy
9:53 AM 30.9 °F - 14.0 °F 50% 30.57 in 10.0 mi North - - N/A   Partly Cloudy
10:53 AM 33.1 °F 25.5 °F 14.0 °F 46% 30.55 in 10.0 mi North 9.2 mph - N/A   Clear
11:53 AM 34.0 °F 28.8 °F 12.9 °F 42% 30.54 in 10.0 mi Variable 5.8 mph - N/A   Clear
12:53 PM 35.1 °F - 12.9 °F 40% 30.54 in 10.0 mi North - - N/A   Clear
1:53 PM 35.1 °F 27.9 °F 12.9 °F 40% 30.54 in 10.0 mi NW 9.2 mph - N/A   Clear
2:53 PM 34.0 °F 28.0 °F 12.9 °F 42% 30.56 in 10.0 mi NW 6.9 mph - N/A   Partly Cloudy
3:53 PM 33.1 °F 26.9 °F 14.0 °F 46% 30.57 in 10.0 mi NNW 6.9 mph - N/A   Partly Cloudy
4:53 PM 30.9 °F 24.3 °F 12.9 °F 47% 30.61 in 10.0 mi NW 6.9 mph - N/A   Partly Cloudy
5:53 PM 30.0 °F 22.4 °F 12.9 °F 49% 30.63 in 10.0 mi NNW 8.1 mph - N/A   Clear
6:53 PM 30.0 °F 25.2 °F 12.9 °F 49% 30.65 in 10.0 mi NNW 4.6 mph - N/A   Clear
7:53 PM 28.9 °F 19.8 °F 12.0 °F 49% 30.66 in 10.0 mi NNW 10.4 mph - N/A   Clear
8:53 PM 28.0 °F 19.3 °F 6.1 °F 39% 30.68 in 10.0 mi North 9.2 mph - N/A   Clear
9:53 PM 26.1 °F 17.6 °F 3.0 °F 37% 30.71 in 10.0 mi North 8.1 mph - N/A   Clear
10:53 PM 24.1 °F 16.0 °F 5.0 °F 44% 30.72 in 10.0 mi NNE 6.9 mph - N/A   Clear
11:53 PM 24.1 °F 15.2 °F 5.0 °F 44% 30.73 in 10.0 mi North 8.1 mph - N/A   Clear